Wind_Speed
2 3 2 2 2 2 2 2 2 2 3 3 4 5 5 4 4 4 4 4 5 5 5 6 6 6 7 7 8 9 9 10 11 11 12 12 12 13 13 14 15 15 16 17 18 18 18 18 17 15 14 12 11 10 9 9 9 10 10 10 10 10 9 9 10 10 10 11 12 12 12 13 13 13 14 14 14 14 13 12 12 11 11 10 10 9
1 2 2 2 2 2 2 2 2 2 2 2 3 4 5 5 5 6 6 6 7 7 8 8 8 9 9 10 10 11 11 12 12 12 13 13 13 13 13 14 14 15 15 15 15 15 14 13 12 10 9 9 9 9 9 9 10 10 10 11 11 11 10 10 10 11 11 12 12 12 12 12 13 13 13 13 13 13 13 12 12 11 11 11 10 10
1 2 3 3 3 3 3 2 2 1 1 2 3 4 4 5 6 7 7 7 7 8 8 9 9 10 10 11 12 13 13 13 13 13 12 12 11 11 11 11 11 11 10 10 9 9 8 8 7 7 7 8 8 8 8 9 9 9 10 10 11 11 11 11 12 12 13 13 13 14 14 14 13 13 13 13 13 13 13 12 12 12 11 11 11 11
2 2 2 3 3 2 2 2 2 2 2 3 3 4 4 4 4 6 7 6 6 6 7 7 7 8 9 10 11 12 12 11 10 9 9 8 8 7 7 6 6 6 6 6 5 5 5 5 5 6 7 7 7 7 7 8 8 9 9 10 10 10 11 12 13 13 14 14 14 14 14 14 14 14 14 14 14 14 13 12 12 11 11 11 11 12
2 1 2 2 2 2 2 2 2 3 3 3 4 4 4 4 4 5 6 5 5 5 6 6 6 6 6 7 8 9 9 8 7 6 6 5 4 3 3 3 4 4 4 4 4 4 4 4 5 5 6 6 6 7 7 8 8 9 9 10 10 11 11 12 12 12 13 13 14 14 14 14 14 15 15 15 15 15 14 13 12 11 10 10 11 12
1 1 1 1 1 2 2 3 3 3 3 3 4 4 4 4 4 4 4 4 4 4 4 4 3 4 4 4 5 6 5 5 5 4 4 3 3 2 1 1 2 3 3 3 3 2 2 3 3 4 5 5 6 6 7 8 8 9 9 10 10 11 11 11 11 11 12 12 13 13 14 14 14 14 14 15 15 14 14 13 12 11 11 11 11 11
1 1 1 1 1 1 2 3 3 2 2 3 3 4 4 4 4 3 3 3 3 3 3 3 3 2 2 3 4 4 4 4 4 4 4 3 3 2 2 1 1 1 1 1 1 1 2 2 3 4 5 6 6 7 8 9 9 10 10 11 11 11 11 11 11 11 11 12 12 12 12 12 13 13 13 13 13 13 12 12 12 12 12 12 12 12
1 1 1 1 1 1 1 2 3 2 2 2 2 2 2 3 3 3 2 3 3 3 3 3 3 2 2 2 3 3 3 3 4 4 4 4 4 3 2 2 1 1 0 1 1 2 3 4 5 5 6 7 8 9 10 10 11 11 12 12 13 13 13 13 13 13 13 12 12 12 12 12 12 12 12 12 12 11 11 12 12 12 12 12 12 12
1 1 1 0 0 0 1 1 2 2 2 2 1 1 1 2 1 1 0 1 1 2 2 2 2 2 1 2 3 3 3 3 2 2 2 3 3 2 2 3 3 3 3 3 4 5 6 7 8 9 9 10 11 11 12 13 13 14 14 14 15 15 15 15 15 14 14 14 14 13 13 13 13 13 13 13 12 12 12 12 12 12 12 12 13 13
2 1 1 0 0 0 0 0 1 2 2 2 1 1 2 2 2 1 1 0 0 1 2 2 2 2 2 3 4 4 5 5 5 5 4 3 3 4 5 5 6 6 6 7 8 9 10 11 12 12 13 14 15 15 16 17 17 17 17 17 17 17 17 17 16 16 15 15 15 14 14 14 15 15 16 15 15 14 14 13 13 13 14 14 14 14
2 1 1 1 1 0 0 0 0 1 1 1 1 0 1 1 2 2 2 1 0 1 2 2 3 3 3 4 4 5 6 6 6 7 7 7 7 8 8 8 8 9 10 10 11 12 13 14 14 15 16 17 18 19 19 20 20 20 20 20 19 19 18 18 17 17 16 16 16 16 16 16 16 16 17 17 17 16 16 16 15 15 15 15 15 15
1 1 1 1 1 1 1 1 0 0 1 1 1 1 0 1 2 2 3 2 2 2 2 3 4 4 4 4 5 5 5 5 4 5 6 7 8 8 9 9 9 10 11 11 12 13 14 15 16 17 18 19 20 21 22 22 23 23 22 22 21 20 19 19 18 18 17 17 17 17 17 17 17 17 17 18 18 18 17 17 16 16 15 16 16 16
1 1 1 1 1 1 1 1 1 1 0 1 1 1 1 2 2 2 2 2 2 3 3 3 3 4 5 5 5 5 5 4 4 5 5 6 6 7 8 8 8 9 9 10 11 11 13 15 17 19 20 21 22 23 23 23 23 23 22 21 20 19 19 18 17 17 16 16 17 17 17 17 17 18 18 18 18 18 18 17 17 17 16 16 16 16
1 1 1 1 1 1 0 0 0 0 1 1 2 2 2 2 2 2 2 2 2 3 4 3 3 3 5 6 5 5 5 4 4 5 5 5 6 7 9 9 9 9 9 10 10 10 11 13 16 17 19 20 20 20 20 19 19 19 18 17 16 16 15 15 15 15 15 15 15 16 16 16 17 17 17 17 17 17 17 17 17 16 16 16 15 15
1 1 1 1 1 1 0 0 1 1 1 2 2 2 2 2 2 2 2 2 3 3 4 4 4 4 4 5 5 5 4 4 4 5 5 6 6 8 10 11 10 10 9 10 10 10 11 13 14 14 15 14 14 14 14 14 14 13 12 11 11 12 12 12 13 13 13 14 14 14 14 15 15 15 16 16 16 16 16 16 16 16 15 15 15 15
0 1 1 1 1 1 1 1 1 1 2 2 2 2 2 2 2 2 3 3 4 4 4 5 5 4 3 3 4 4 3 3 4 5 6 7 7 8 10 11 11 10 10 10 10 10 11 11 11 11 11 11 11 12 13 11 10 9 9 9 10 10 11 11 12 12 12 12 13 13 13 13 14 14 14 15 15 15 15 15 15 15 14 14 14 14
1 1 1 1 1 1 1 1 1 1 1 1 1 2 2 2 2 3 3 4 4 4 4 4 5 4 3 3 2 3 4 4 5 6 7 9 8 8 10 11 11 11 10 10 10 10 10 10 9 9 9 9 11 12 12 10 9 9 9 10 10 10 10 11 11 11 12 12 12 12 12 13 13 13 13 14 14 14 14 14 14 14 14 14 14 14
1 1 2 2 1 1 0 0 0 1 1 1 1 1 1 2 2 3 3 4 4 4 4 4 4 4 5 4 2 3 7 7 7 8 9 9 9 8 9 11 11 11 10 10 9 9 9 9 9 9 10 12 13 13 12 11 11 10 10 11 11 11 11 11 12 12 12 12 12 12 12 13 13 13 13 13 13 13 13 14 14 14 14 14 14 14
1 2 2 2 1 1 1 1 1 1 1 1 2 2 2 2 2 3 3 4 4 4 4 5 5 5 6 5 5 6 10 10 9 8 9 9 9 8 8 9 9 9 9 9 8 8 8 9 10 12 13 14 14 14 13 13 13 12 12 12 12 12 12 12 13 13 13 13 13 13 13 13 13 13 13 13 13 13 14 14 14 14 14 14 14 14
2 2 2 1 1 2 2 1 1 1 1 1 2 3 3 4 4 4 4 4 4 4 4 5 6 6 6 6 7 8 11 10 9 8 8 9 9 8 7 7 8 9 9 9 9 8 9 9 10 12 13 14 13 13 13 13 14 14 14 14 14 14 14 14 14 14 14 14 14 14 14 14 14 14 14 14 14 14 14 14 14 14 14 14 14 14
3 2 2 2 2 2 2 1 1 1 1 2 2 3 4 4 4 4 4 4 4 5 5 5 6 6 6 7 7 9 11 10 8 7 8 8 8 8 7 7 8 8 9 9 9 8 8 9 10 11 12 12 12 12 13 13 14 14 14 15 15 14 14 14 14 14 14 14 14 14 14 14 14 14 14 14 14 14 14 14 14 14 15 15 15 15
3 2 2 2 2 2 1 1 1 1 2 2 2 3 4 4 5 5 5 5 6 6 6 6 7 7 8 9 10 11 12 11 8 6 7 7 8 8 6 6 7 8 9 9 8 8 8 9 9 10 11 11 11 11 12 13 13 13 13 13 13 13 13 13 13 13 13 13 14 14 14 14 14 14 14 14 14 14 14 14 14 15 15 15 15 15
3 2 2 2 2 2 2 1 1 2 3 3 3 4 4 5 5 6 7 7 7 8 8 9 9 10 12 12 12 12 12 11 9 6 6 7 7 7 5 5 6 8 8 8 8 8 8 9 10 10 10 10 10 11 12 12 11 11 10 9 9 9 9 9 9 9 10 11 11 12 12 12 13 13 13 13 13 14 14 14 14 14 14 15 15 15
2 2 2 2 2 2 2 2 2 2 3 3 4 5 6 7 7 8 8 9 9 9 10 10 11 11 11 11 10 9 9 10 8 6 5 6 7 7 7 6 7 7 8 8 8 8 9 10 10 9 8 8 10 11 11 10 9 7 6 6 5 5 5 6 6 7 7 8 8 8 9 9 10 10 11 11 11 12 12 12 12 13 13 13 14 14
2 2 2 2 2 2 2 3 3 3 3 4 5 6 8 9 9 9 9 9 9 9 9 9 9 9 8 8 7 7 8 9 8 6 5 6 7 8 7 7 7 7 8 9 9 9 10 10 9 8 7 7 9 11 11 9 7 6 5 4 4 4 5 6 6 7 7 7 7 8 8 8 8 9 9 9 10 10 10 11 11 12 12 13 13 14
2 3 3 3 3 3 4 4 4 4 4 5 5 6 7 8 8 8 8 8 7 7 8 8 8 8 7 7 6 6 6 8 8 7 6 6 7 8 7 6 6 7 9 10 10 10 9 9 8 7 6 6 8 10 10 8 6 5 5 5 6 6 7 8 8 8 9 9 9 9 9 9 9 9 9 9 10 10 11 11 11 12 12 13 14 15
3 4 4 4 4 5 5 5 6 6 6 7 7 8 8 8 9 9 8 8 7 7 7 8 8 8 7 6 6 5 5 6 7 7 6 6 6 7 7 6 7 8 9 10 10 9 9 9 8 7 6 5 7 8 8 7 6 6 6 7 8 9 10 10 11 11 11 11 11 11 11 11 10 10 10 10 11 11 11 12 12 12 13 14 14 15
6 6 6 6 6 7 7 8 9 10 10 10 10 10 9 9 9 9 9 8 7 7 7 8 8 7 7 6 6 6 6 6 6 6 5 5 6 7 7 7 7 8 9 10 10 10 9 8 7 6 5 6 7 8 8 8 9 9 9 10 11 11 12 13 13 13 13 13 13 13 13 13 12 12 11 11 11 11 12 12 12 12 13 13 14 14
9 9 9 9 10 11 11 11 12 12 12 12 12 11 10 9 10 10 10 9 8 8 8 8 8 7 7 7 7 7 7 6 6 5 4 4 5 6 6 6 6 7 8 9 9 9 7 6 5 5 5 6 7 8 8 9 10 10 11 11 12 13 13 13 14 14 15 15 15 15 14 14 14 13 13 12 12 12 12 12 12 12 13 13 13 13
8 9 10 11 12 12 12 12 12 13 14 14 13 12 11 11 10 10 10 9 8 8 8 8 8 8 7 7 6 6 6 5 5 5 4 4 5 6 5 5 6 6 7 7 7 6 5 4 3 3 5 6 7 8 8 9 9 9 10 10 10 10 11 11 12 13 13 14 15 15 15 15 15 15 15 14 14 14 14 14 13 13 13 13 13 13
7 7 8 9 10 10 11 12 13 14 15 15 15 14 13 12 12 11 11 9 9 8 8 8 8 7 7 6 4 3 3 2 4 5 4 4 4 5 5 5 6 6 6 5 5 4 4 3 3 3 5 7 8 8 8 8 9 9 9 9 8 8 9 10 11 11 11 12 13 14 15 16 16 16 17 17 17 16 16 16 15 14 13 13 13 13
7 8 8 9 9 10 12 13 14 15 15 15 15 15 15 14 14 14 13 11 9 9 8 8 8 7 7 6 5 4 4 3 4 4 3 3 4 5 5 5 6 6 5 5 4 3 2 4 5 6 7 8 9 9 9 9 8 8 8 8 8 8 10 10 10 10 10 11 12 13 14 15 16 17 17 18 18 18 18 17 16 15 14 13 13 13
9 9 9 10 10 11 12 13 14 15 15 14 14 14 14 14 14 14 13 12 11 9 8 8 7 7 7 7 7 7 6 5 5 4 4 3 4 5 5 5 6 6 6 6 6 6 6 7 9 10 10 10 9 9 9 9 8 8 8 8 9 10 11 11 10 10 10 10 10 11 11 12 13 14 15 16 16 17 17 17 16 15 14 13 13 13
10 10 10 10 10 11 11 11 12 12 12 12 12 11 12 12 12 11 11 10 10 10 9 8 7 7 7 7 7 7 7 5 4 3 3 3 4 5 5 6 6 6 7 7 7 7 8 9 10 10 10 10 10 9 9 8 8 8 8 9 10 11 11 11 10 10 9 9 9 8 9 9 10 11 11 12 13 14 15 15 15 15 14 13 13 13
11 11 11 10 10 10 10 9 9 9 8 8 8 9 9 9 9 9 9 9 9 10 10 9 8 7 7 7 7 7 6 5 3 3 3 4 4 5 6 7 7 7 7 7 7 7 8 9 10 10 11 11 11 10 8 7 7 7 8 9 10 10 10 10 10 10 9 9 8 8 7 7 8 8 9 10 11 12 13 13 14 14 14 14 14 13
10 10 10 10 9 8 8 8 7 7 6 6 6 7 7 7 6 7 8 9 9 9 9 9 9 9 9 8 8 8 7 6 6 5 6 5 6 6 7 7 7 7 7 8 8 8 8 9 10 11 11 11 10 9 8 7 7 8 8 9 9 9 9 9 9 9 9 8 8 8 7 7 7 8 9 10 11 12 12 13 14 14 15 15 15 15
10 10 9 9 8 7 7 7 6 6 6 5 5 6 6 6 6 6 7 9 10 10 10 10 10 11 12 11 11 11 11 10 10 10 9 9 9 8 9 9 9 9 8 8 9 9 9 10 10 11 10 9 9 8 9 9 9 9 10 9 9 10 10 10 9 9 9 9 8 8 8 8 9 9 9 10 11 11 12 13 13 14 15 15 16 17
9 9 8 8 7 6 6 6 6 6 5 5 5 5 6 6 6 6 7 9 11 12 12 11 11 12 14 14 15 16 16 16 15 15 15 15 13 12 11 11 11 11 10 10 10 10 9 9 9 9 9 9 9 10 10 10 11 10 10 10 10 10 10 9 8 8 9 9 9 10 10 10 10 9 9 9 9 10 11 11 11 12 13 14 15 17
8 8 8 7 6 6 6 6 6 6 6 6 6 7 7 7 7 8 8 9 11 12 13 13 12 13 15 17 18 19 20 20 20 20 20 20 18 16 13 12 12 11 11 10 10 10 10 10 9 9 8 9 10 10 11 10 11 11 11 11 11 10 9 8 8 8 9 9 10 10 10 10 9 9 9 9 9 10 10 10 10 10 11 11 13 14
7 7 7 7 7 6 6 6 6 6 6 8 9 9 8 8 8 8 8 9 9 10 11 11 11 12 14 15 17 17 18 19 19 19 20 19 18 17 14 13 12 11 10 10 10 10 10 10 10 10 10 10 10 11 11 11 11 11 11 11 10 9 9 8 9 10 10 10 10 9 9 9 9 9 9 9 9 9 10 10 10 10 10 10 10 11
7 7 7 7 7 7 7 7 7 8 9 9 9 8 8 7 7 7 7 8 8 8 8 9 9 10 11 12 13 13 13 14 15 15 16 16 15 14 13 12 11 11 10 10 10 10 10 10 11 11 11 11 11 12 12 12 12 12 11 11 11 11 11 11 11 11 10 10 9 9 9 9 10 10 10 10 10 10 10 10 11 11 11 11 11 11
8 8 7 7 7 7 7 8 9 10 10 9 8 8 7 7 6 6 6 6 7 7 7 7 7 8 8 9 9 9 10 11 12 12 12 11 11 10 10 10 10 10 9 9 9 10 10 10 11 11 11 11 11 11 12 12 12 12 11 12 12 13 13 12 10 9 8 8 9 9 9 10 10 10 10 10 10 10 11 11 12 12 12 12 12 12
8 7 7 7 7 8 9 10 10 10 9 8 8 8 7 7 6 6 6 6 6 6 6 6 6 6 7 8 8 8 9 9 9 9 9 8 7 7 7 8 9 9 9 9 9 9 10 10 11 11 11 11 11 12 13 13 13 12 12 12 12 11 10 9 8 8 8 8 9 9 10 10 10 10 10 10 11 11 11 12 13 13 13 13 13 13
8 9 10 10 11 12 12 11 10 9 8 8 8 8 7 7 7 6 6 6 6 6 6 6 6 6 7 8 8 8 7 8 8 8 8 8 7 7 7 8 9 10 10 10 10 10 10 10 11 11 11 11 11 12 13 13 13 13 13 12 11 11 11 11 10 10 10 10 10 10 10 10 10 11 11 11 12 12 12 12 12 12 13 13 13 14
12 13 13 12 12 11 10 9 8 8 8 8 8 8 7 7 7 7 6 6 6 6 6 6 6 6 6 7 7 7 6 6 7 7 8 8 8 8 8 9 10 11 11 12 11 11 10 10 10 10 11 11 12 13 14 14 14 14 14 13 12 12 13 13 13 12 12 11 11 11 10 10 10 11 11 12 12 12 12 12 12 12 13 13 13 14
13 13 12 11 11 10 9 9 8 8 8 8 8 8 7 7 7 7 7 7 7 7 7 6 6 6 6 6 6 6 6 5 6 6 7 7 8 8 9 10 10 11 12 12 13 13 13 12 11 11 11 11 12 14 14 14 14 14 14 13 13 13 13 13 13 12 12 12 11 11 10 10 10 11 12 12 13 13 13 12 12 13 13 13 13 14
11 11 10 9 9 9 8 8 8 8 8 9 9 8 8 8 8 8 8 8 7 7 7 7 7 7 8 7 7 6 6 6 6 6 6 6 7 7 8 9 10 11 12 13 13 14 14 14 14 13 13 12 13 14 15 14 14 14 14 14 13 13 13 13 13 12 12 12 11 11 11 10 11 12 12 13 13 13 13 13 13 13 13 13 14 14
10 9 9 8 8 8 8 8 8 8 8 9 9 9 8 8 8 8 8 8 8 7 7 7 7 8 8 8 8 7 7 7 7 7 6 6 6 7 7 8 9 10 11 12 13 14 15 16 16 16 16 15 14 15 15 14 14 14 14 13 13 13 13 13 13 12 12 12 12 12 12 11 11 12 12 13 14 14 14 14 13 13 14 14 14 15
10 10 9 9 8 8 8 8 8 8 9 9 9 9 8 8 8 9 8 8 8 8 8 8 8 8 8 8 8 8 8 8 8 7 7 7 7 7 7 7 8 8 9 11 12 13 14 16 17 18 18 18 17 16 16 15 14 14 14 13 13 13 14 14 13 13 12 13 13 13 13 12 12 12 12 13 14 15 15 15 15 15 14 14 15 15
10 10 10 10 9 9 9 8 8 8 9 9 9 9 9 8 9 9 9 9 9 9 9 9 8 8 8 8 8 8 8 8 8 8 8 7 7 7 7 7 7 7 8 9 10 10 12 13 15 16 18 19 19 19 18 16 15 14 14 13 13 14 14 14 14 13 13 12 13 13 13 12 12 13 13 13 15 16 17 16 16 15 15 14 14 15
10 11 10 10 10 9 9 9 9 9 9 9 9 9 9 9 9 9 9 9 9 9 9 9 9 9 9 9 9 9 8 8 8 8 8 8 7 7 7 7 7 7 7 7 8 8 8 9 9 11 14 16 17 18 19 17 15 14 14 14 14 13 13 14 14 13 13 13 13 13 13 13 13 13 13 13 14 16 17 17 17 16 15 14 14 15
Wind_Direction
320 338 359 20 52 60 31 355 356 5 356 332 315 307 305 305 298 292 290 283 276 270 267 263 260 259 259 259 261 264 267 271 274 277 280 282 283 285 285 284 284 284 285 286 286 287 289 291 292 293 292 291 286 280 274 270 269 268 268 268 268 269 272 274 276 279 282 282 283 283 279 276 274 274 274 274 275 277 278 279 279 278 277 275 274 274
14 15 25 42 55 56 47 25 3 354 349 322 304 297 297 297 287 278 274 275 277 279 279 278 276 276 277 276 275 277 280 283 285 286 287 287 288 288 288 287 287 287 288 288 289 290 291 292 292 290 285 281 275 271 269 269 270 271 270 269 267 267 270 273 276 280 284 285 288 289 287 283 278 276 274 273 274 275 276 277 277 276 275 274 274 274
60 41 27 37 45 45 38 32 19 348 325 302 291 291 299 303 296 285 277 281 286 290 292 292 292 291 290 289 288 288 290 292 294 294 294 294 293 293 292 293 294 296 298 298 298 298 298 296 292 285 278 274 273 275 278 281 283 284 283 282 281 280 280 280 282 285 286 287 289 290 290 288 285 281 278 276 275 276 276 276 275 274 273 273 273 274
64 45 24 27 30 30 23 20 13 356 331 308 295 292 296 299 295 287 280 281 285 288 289 290 291 291 291 292 292 291 290 292 293 295 296 298 300 303 305 310 316 321 323 322 321 316 308 297 288 285 285 287 291 294 297 299 300 299 299 297 295 293 292 289 287 286 285 284 284 284 283 282 281 280 278 276 275 275 275 274 275 275 275 273 272 271
56 41 21 23 22 10 357 353 357 353 340 328 320 315 310 305 299 294 291 286 282 278 279 281 284 289 292 293 292 290 288 287 286 286 287 291 299 309 321 331 336 334 326 321 319 314 305 295 292 294 297 300 303 303 302 302 301 300 297 296 295 294 292 290 286 283 278 277 276 275 274 273 273 272 272 270 270 270 271 272 274 277 279 278 275 272
68 50 37 26 15 3 351 347 353 354 343 338 336 336 332 328 324 325 324 319 308 298 291 290 297 306 310 305 300 299 300 298 295 290 283 278 266 254 272 342 344 331 313 304 304 304 300 299 298 297 296 293 292 293 294 294 293 292 292 290 290 291 293 290 286 282 278 275 274 272 269 268 267 266 266 264 265 266 268 270 272 275 277 277 277 276
102 65 57 32 11 355 355 352 358 5 4 354 351 351 353 359 5 8 3 6 6 4 3 10 7 356 343 329 326 331 339 341 339 335 324 309 284 255 248 288 350 343 328 322 321 308 288 287 286 287 287 287 289 290 290 293 292 291 290 287 287 287 286 285 283 282 280 278 276 274 272 270 269 267 264 264 264 266 267 268 270 272 273 273 273 274
126 106 73 57 22 356 356 356 7 27 47 24 1 352 356 6 18 23 23 26 25 23 20 21 17 10 10 351 347 350 354 357 358 356 353 345 332 316 290 269 250 235 253 268 269 264 260 263 268 273 278 281 285 287 287 288 287 286 285 284 282 280 279 277 276 276 275 274 274 273 272 272 271 269 267 266 266 267 267 268 269 270 271 272 272 273
129 124 106 86 48 8 354 2 3 18 65 59 15 336 327 340 353 7 24 44 33 19 12 359 351 351 358 345 335 328 317 318 324 333 345 358 359 342 294 265 249 242 242 244 249 253 257 261 264 269 273 276 278 280 282 282 282 282 282 281 280 278 276 274 273 273 272 271 270 269 269 268 267 266 265 265 265 265 266 267 268 269 270 272 273 274
131 136 139 127 80 14 329 19 347 356 47 63 51 352 330 326 321 306 252 198 85 18 359 349 337 333 334 325 315 308 304 301 296 289 284 286 281 274 270 266 262 259 258 258 259 262 265 268 271 273 275 277 278 279 281 281 282 283 283 282 280 278 276 274 272 271 270 269 268 267 267 265 263 262 262 261 261 262 263 265 267 268 270 272 274 274
143 148 165 165 145 169 240 261 317 341 12 29 35 318 313 344 338 324 302 289 317 6 352 328 313 307 309 308 304 300 298 299 298 294 289 286 282 278 276 275 273 271 270 270 271 272 274 275 276 277 278 279 280 281 282 283 284 284 284 283 281 279 277 274 272 270 268 267 266 265 264 263 262 261 260 260 260 261 262 264 266 269 271 273 273 272
144 154 178 175 171 184 208 212 219 244 273 268 249 224 173 25 1 337 321 319 331 349 350 325 309 301 297 295 295 296 295 296 292 289 290 290 288 286 283 282 282 281 280 280 280 280 281 280 279 279 280 280 281 282 283 283 283 283 282 281 279 277 275 273 270 268 268 267 266 265 264 263 262 262 261 261 261 262 263 265 267 270 271 271 271 269
130 151 178 178 175 173 190 213 212 217 238 278 300 338 20 19 9 345 322 321 333 341 335 324 311 305 301 297 295 295 294 293 287 282 282 282 283 282 281 282 286 288 288 287 287 287 286 284 284 283 284 284 284 284 284 283 283 282 280 278 276 274 272 270 269 268 268 267 266 265 265 263 263 262 263 262 263 264 265 266 268 269 269 269 267 266
134 167 186 183 167 144 113 306 287 30 43 30 22 17 14 9 357 338 313 317 330 333 325 309 292 291 300 299 297 296 294 292 289 285 280 275 273 274 276 279 283 288 290 290 289 288 288 288 288 289 289 289 289 288 287 285 284 283 282 280 278 275 273 270 269 269 269 268 267 267 266 264 264 263 263 264 264 265 265 266 266 267 266 265 264 263
141 194 203 190 169 133 81 24 10 30 47 43 39 27 6 356 349 333 315 316 327 329 318 302 285 275 282 293 297 297 298 299 296 291 285 279 276 275 278 281 284 287 290 290 288 288 288 289 290 291 291 290 289 287 286 286 286 287 287 285 282 279 275 273 271 270 269 268 268 267 267 266 265 265 264 264 264 265 265 265 264 264 263 262 261 260
204 244 231 218 188 140 88 51 39 44 51 50 41 25 357 349 349 341 327 320 320 320 314 306 296 283 266 275 287 296 305 312 307 299 294 288 283 281 282 285 288 291 291 290 288 288 289 290 289 289 288 286 284 284 284 286 287 288 288 285 282 279 276 274 272 271 271 270 269 269 268 267 267 266 266 266 265 265 264 264 263 262 261 260 259 256
251 257 250 242 226 171 113 85 60 46 41 34 27 20 6 353 343 333 321 315 312 311 310 309 305 298 286 277 288 303 307 316 315 306 299 293 288 284 285 288 292 295 295 292 289 289 289 289 288 287 284 282 281 282 284 284 283 283 284 283 280 278 276 275 272 271 271 272 272 271 269 269 269 268 267 267 265 264 264 263 262 262 260 258 256 254
232 248 254 254 239 212 173 198 275 289 298 311 330 347 354 348 338 327 317 314 312 312 310 306 299 294 293 291 302 312 307 315 316 309 300 293 288 285 286 291 295 298 298 295 291 289 288 287 286 283 281 280 281 281 281 279 279 279 279 279 278 278 277 276 274 272 272 271 272 272 272 271 270 269 267 267 266 265 263 263 262 261 259 257 255 254
236 244 251 254 249 240 238 254 271 283 292 299 308 311 311 320 324 321 314 314 314 312 311 305 296 288 286 289 295 303 306 314 315 308 299 293 289 287 287 294 300 302 299 296 293 291 289 288 286 285 285 285 285 284 282 278 277 277 276 276 276 275 275 275 275 274 273 272 272 272 272 272 271 269 268 267 266 265 264 262 261 259 258 257 256 256
250 244 244 251 252 252 253 257 275 299 310 309 307 304 300 301 303 303 305 307 305 304 301 294 289 285 284 286 293 301 306 314 316 308 297 292 290 288 287 294 300 302 301 296 293 292 291 290 291 293 294 293 291 287 283 279 276 275 275 275 274 273 273 272 272 272 272 273 273 273 272 271 271 270 268 268 266 265 265 264 263 261 260 259 258 257
261 250 241 243 253 261 264 269 273 273 288 305 307 305 300 302 302 302 305 306 303 298 292 285 284 285 288 289 292 296 301 308 309 304 298 295 291 288 287 293 300 303 301 298 296 294 293 293 295 297 299 299 295 289 282 279 276 275 275 275 275 275 275 274 274 274 273 273 273 272 271 271 270 269 269 268 267 266 266 265 265 264 262 261 260 259
266 254 243 237 245 256 262 257 249 263 284 311 315 308 307 309 309 308 307 307 303 299 293 288 287 288 290 288 287 288 291 295 295 293 296 295 291 289 289 296 302 303 300 300 299 297 295 295 297 301 303 302 297 290 283 279 276 276 276 277 278 280 281 282 281 280 278 275 273 272 271 270 269 269 268 268 267 266 265 265 264 264 262 261 261 260
265 255 242 236 238 246 252 250 259 278 296 308 307 301 303 306 306 304 304 301 298 295 292 289 287 287 285 283 281 281 285 288 287 283 287 288 291 293 295 302 304 302 299 301 302 301 298 297 299 303 305 304 299 293 287 282 279 278 280 284 288 290 291 291 289 286 282 277 274 272 271 269 268 266 266 265 263 262 263 262 261 261 260 260 260 260
263 252 244 239 241 245 254 261 267 278 294 297 297 295 295 296 294 292 291 290 288 287 287 287 286 284 282 281 278 272 270 279 281 277 276 283 289 294 299 303 302 300 299 302 303 303 301 299 301 302 301 298 297 295 293 288 283 281 283 286 289 289 286 282 277 272 268 265 264 263 260 260 259 258 259 258 258 257 258 258 259 259 259 259 260 260
265 257 252 252 253 256 260 262 265 274 289 297 297 296 299 300 297 292 288 284 282 281 282 284 285 284 283 281 277 266 257 269 275 273 271 283 290 293 297 299 300 300 301 303 304 304 302 299 299 299 297 292 294 297 299 295 287 280 276 276 274 273 271 264 260 257 257 256 254 253 253 253 252 253 254 254 255 256 257 258 260 260 261 261 261 262
263 259 257 260 259 256 252 250 255 268 282 292 299 302 304 304 300 294 287 283 281 281 282 285 286 286 288 286 281 272 264 272 276 274 271 281 289 293 295 299 301 303 304 305 305 303 299 296 297 298 296 291 295 301 306 303 293 280 274 272 275 276 274 270 267 264 260 258 257 255 256 256 258 260 261 261 261 261 261 263 265 266 267 267 268 268
255 258 260 260 259 256 253 252 256 264 273 280 287 294 298 298 296 291 285 283 283 285 286 286 287 288 287 284 279 276 275 279 278 274 269 275 284 290 293 298 304 306 306 305 303 299 293 290 290 292 292 292 298 306 314 314 308 297 287 283 281 279 277 273 270 266 262 260 257 255 256 257 260 263 265 266 267 267 267 268 269 270 271 271 271 271
252 254 255 255 256 256 257 259 262 266 270 275 278 282 288 290 288 283 280 283 286 286 283 281 282 284 286 283 282 282 282 279 270 263 266 272 279 284 289 299 305 308 308 307 304 298 289 281 279 282 288 297 305 312 315 317 314 308 300 294 289 285 281 277 274 271 268 265 262 260 258 258 259 261 263 264 265 265 266 267 269 270 271 271 271 271
258 257 255 255 256 257 259 262 265 268 271 273 276 277 279 280 277 276 276 281 283 281 276 273 274 276 279 282 285 285 280 273 258 250 262 274 277 279 287 298 306 311 314 314 311 305 290 275 267 271 287 304 312 314 311 312 310 307 303 299 295 291 286 281 277 274 271 268 266 264 262 260 259 259 259 260 260 261 262 263 265 268 269 269 269 268
265 264 263 263 264 265 267 271 274 275 277 278 278 277 275 272 269 269 272 275 275 272 269 269 269 271 275 281 284 282 274 257 245 247 263 273 276 281 292 300 307 314 320 321 320 315 302 283 265 270 295 310 313 311 307 306 305 305 304 304 302 298 293 287 281 276 273 270 268 266 264 262 260 259 258 258 257 258 258 259 261 264 266 267 267 265
272 272 272 272 273 275 277 279 281 282 284 284 283 280 276 270 266 265 266 266 264 261 262 264 265 267 268 273 277 279 275 254 250 256 267 267 273 283 296 302 304 307 314 320 321 318 312 303 293 295 309 312 311 307 305 303 303 304 305 305 304 302 301 298 293 286 280 275 271 268 266 264 262 261 260 259 259 259 259 259 259 260 263 264 264 263
279 279 278 278 278 279 280 282 284 285 286 286 285 282 277 272 268 266 264 260 255 253 254 257 261 261 259 258 259 267 279 279 280 277 271 266 272 283 292 296 296 297 300 303 300 297 299 300 303 306 309 309 307 304 303 301 300 300 301 302 300 300 303 304 303 298 292 285 279 274 270 267 265 264 263 263 262 261 261 260 260 259 259 260 261 262
282 281 281 280 280 280 281 283 285 286 286 284 282 279 276 272 269 266 263 257 251 246 246 251 256 258 258 256 256 261 270 275 283 285 280 270 274 281 286 287 289 291 293 292 287 280 278 286 295 301 304 304 304 303 302 300 297 296 298 299 299 300 303 306 305 302 298 294 289 283 278 274 271 268 267 265 265 264 263 262 260 257 255 255 257 260
281 281 281 280 279 279 280 282 284 284 284 282 279 275 272 270 267 263 258 253 247 243 239 243 249 255 258 259 259 259 263 266 270 274 271 273 275 279 283 284 285 288 292 291 289 285 281 284 291 298 302 304 304 302 301 299 296 295 296 298 300 302 305 307 306 304 302 301 300 297 292 287 283 278 274 270 267 265 263 261 259 255 252 251 253 258
282 281 280 279 278 278 279 280 279 278 277 275 272 269 266 263 260 256 252 248 245 243 241 240 242 247 253 259 262 261 261 260 263 266 266 275 280 281 283 281 282 286 289 289 289 290 288 288 291 296 301 304 304 302 299 298 298 298 298 299 301 303 304 304 304 303 304 304 304 302 299 295 290 286 280 275 270 266 262 259 256 253 251 250 251 254
281 280 278 276 275 275 276 277 275 272 267 263 262 261 259 254 248 245 244 244 244 243 243 244 244 245 246 251 256 260 261 266 271 273 274 277 279 281 281 278 278 281 284 284 285 287 289 291 292 295 297 299 300 301 301 302 304 304 302 301 300 299 299 300 300 299 299 298 297 296 294 291 287 284 281 277 274 270 265 261 257 255 253 252 251 251
280 278 276 273 271 271 272 273 272 267 262 258 256 256 252 245 239 236 238 243 244 244 245 247 249 250 250 250 252 253 256 262 266 268 269 269 271 274 274 274 274 275 275 277 280 283 286 289 292 293 293 291 293 297 302 306 307 305 303 301 300 299 297 296 295 293 292 290 289 289 289 287 286 285 284 283 282 279 275 271 266 263 259 257 255 253
277 276 274 271 268 267 268 268 266 264 260 256 255 252 248 244 239 238 241 246 248 248 249 252 256 257 257 257 257 257 258 261 263 265 266 266 266 267 267 269 270 269 268 269 273 277 281 284 288 290 290 288 289 292 298 302 303 303 301 301 300 298 295 292 289 287 287 286 286 287 287 288 289 288 287 287 286 285 283 282 278 273 269 267 264 260
274 273 273 270 268 265 265 264 264 264 263 259 256 252 249 248 247 247 247 251 255 257 258 259 260 262 263 265 265 266 266 267 267 268 268 268 266 264 261 262 264 265 264 264 265 268 271 274 277 281 286 290 292 293 295 297 298 299 301 302 301 297 293 290 287 285 284 284 285 285 286 288 289 288 286 284 283 283 282 282 283 281 279 278 276 272
274 274 274 271 269 268 266 266 266 266 266 265 262 259 255 255 254 252 251 253 256 259 260 260 261 263 266 268 270 271 271 271 271 271 271 269 267 263 258 256 258 260 261 260 260 260 261 264 268 271 276 282 287 291 293 292 292 295 299 301 299 296 294 291 289 287 284 282 280 279 280 283 283 283 282 281 279 278 278 280 281 281 279 277 275 275
278 277 276 275 273 270 268 268 269 269 270 271 270 267 261 256 254 253 253 253 255 256 255 257 259 263 267 269 270 270 269 271 270 270 269 268 266 261 255 252 252 255 257 257 256 256 256 259 263 267 270 274 279 283 285 286 287 290 292 292 291 291 292 291 289 286 282 277 275 275 277 280 281 281 280 278 276 274 274 275 275 275 275 273 269 268
279 279 279 279 278 276 274 274 274 275 275 274 268 261 254 250 249 251 253 255 255 254 253 255 259 265 267 269 268 266 264 265 266 267 267 265 262 256 251 248 247 248 251 253 254 254 253 255 259 263 267 271 275 279 282 283 284 285 285 284 287 292 294 290 287 282 277 274 274 275 277 278 278 278 277 276 274 272 272 272 272 272 270 267 265 263
279 280 280 280 280 279 279 278 277 275 272 266 259 253 249 248 248 249 251 252 252 251 250 252 257 263 267 269 269 267 264 264 264 263 261 260 256 252 249 247 245 245 247 250 253 255 255 255 257 259 263 267 270 274 278 281 283 283 281 280 284 289 291 289 287 284 279 276 276 276 277 277 277 277 277 276 275 274 273 273 273 271 267 265 263 262
280 280 281 281 282 284 284 280 274 268 262 256 252 250 249 249 248 247 247 249 249 250 252 254 259 264 266 269 271 270 265 261 258 256 255 255 254 254 254 252 250 247 246 248 251 255 258 258 258 259 262 263 266 269 273 276 279 280 279 279 277 276 275 279 284 285 282 279 276 274 274 274 276 277 278 278 277 277 276 274 271 268 265 262 261 260
279 282 284 285 287 286 282 276 268 262 256 253 252 250 249 248 246 244 243 247 250 252 253 255 260 263 264 266 268 268 265 257 250 248 248 251 254 258 258 255 252 249 248 248 250 253 256 259 261 263 264 263 263 265 269 272 275 278 278 277 274 272 270 273 276 278 278 276 275 273 272 273 275 277 278 278 277 277 276 273 271 270 267 263 260 260
283 285 285 286 285 282 276 271 266 261 257 255 253 252 249 247 244 242 243 246 249 252 253 252 254 258 262 264 267 266 264 257 251 247 245 246 250 254 258 256 252 250 249 251 252 253 255 257 261 265 268 267 266 265 266 268 271 274 276 277 275 274 273 273 272 272 272 272 272 271 272 272 274 275 276 277 278 278 276 273 270 269 267 265 263 261
279 280 280 280 280 278 275 271 265 261 258 257 256 253 250 246 244 244 244 245 247 250 252 251 251 252 256 261 263 262 262 260 258 255 254 250 248 248 251 254 254 252 252 254 255 255 255 256 258 260 263 266 267 267 267 266 267 270 273 275 275 275 274 273 272 270 269 269 269 269 270 271 273 273 275 277 279 279 278 275 272 269 268 266 264 263
273 273 273 274 275 275 273 270 265 262 260 259 258 255 251 245 242 241 242 243 244 246 248 248 249 251 255 257 258 258 259 259 260 260 259 258 256 254 251 252 254 256 257 258 258 258 258 258 256 255 255 257 260 265 267 267 266 267 269 272 273 273 272 273 273 272 271 269 267 267 267 268 269 271 275 278 281 281 280 278 276 273 271 268 266 265
267 266 268 270 272 273 272 270 267 265 263 262 261 258 254 248 243 241 241 241 242 242 244 245 248 251 254 256 257 257 257 258 258 258 258 257 257 256 256 256 258 259 261 263 263 262 263 262 259 256 253 250 252 256 262 264 266 267 268 268 269 270 271 273 273 273 272 271 269 267 266 265 265 268 273 277 279 281 281 281 279 277 273 270 267 266
262 263 265 268 269 270 270 270 268 267 265 264 263 261 258 253 246 242 240 240 239 239 241 242 245 249 253 255 256 256 256 256 257 257 256 255 254 253 253 255 258 262 266 268 268 268 268 267 265 261 257 252 250 251 253 258 263 267 268 267 266 268 269 271 273 273 271 271 270 268 265 263 264 267 270 273 276 280 281 282 281 279 276 273 269 267
259 261 263 265 266 267 268 268 268 266 266 265 264 263 260 255 249 244 240 238 237 237 240 241 243 245 250 254 256 257 256 256 256 256 256 255 253 251 250 251 253 258 264 269 272 272 274 275 274 270 264 255 252 251 250 251 257 264 267 267 267 268 267 269 272 273 271 271 271 270 268 267 266 267 267 269 274 278 280 281 281 280 279 276 272 270
Height
822 821 821 821 821 821 820 820 820 820 820 820 820 820 820 820 820 820 819 819 819 819 819 819 819 819 819 819 818 818 818 818 818 818 818 818 818 818 818 818 818 818 818 818 818 818 818 818 819 819 819 819 819 819 819 819 819 820 820 820 820 820 820 820 821 821 821 821 822 822 822 822 822 822 822 823 823 822 822 822 822 822 822 822 823 823
822 821 821 821 821 821 820 820 820 820 820 820 820 820 820 820 820 819 819 819 819 819 819 819 819 819 819 818 818 818 818 818 817 817 817 817 817 817 817 817 817 817 817 817 817 817 817 818 818 818 818 818 818 818 818 819 819 819 819 819 819 819 819 820 820 820 820 820 820 820 821 821 821 822 822 822 822 822 822 822 822 822 822 822 822 822
822 822 821 821 821 821 821 820 820 820 820 820 820 820 820 820 820 819 819 819 819 819 819 819 819 819 818 818 818 817 817 817 817 817 817 817 817 816 816 816 816 816 816 816 817 817 817 817 817 817 818 818 818 818 818 818 818 819 819 819 819 819 819 819 819 820 820 820 820 820 820 821 821 821 821 821 821 821 821 822 822 822 822 822 822 822
822 822 821 821 821 821 821 820 820 820 820 820 820 820 820 820 819 819 819 819 819 819 819 819 819 819 818 818 817 817 817 817 817 816 816 816 816 816 816 816 816 816 816 816 816 816 817 817 817 817 817 817 818 818 818 818 818 818 818 819 819 819 819 819 819 819 820 820 820 820 820 820 820 820 820 821 821 821 821 821 821 821 821 821 820 821
822 822 821 821 821 821 821 820 820 820 820 820 819 819 819 819 819 818 818 818 818 818 818 818 818 818 818 817 817 817 816 816 816 816 816 816 816 816 816 816 816 816 816 816 816 817 817 817 817 817 817 818 818 818 818 818 818 818 819 819 819 819 819 819 819 819 819 819 819 819 819 819 819 819 820 820 820 820 820 820 820 820 820 820 820 820
822 821 821 821 821 821 821 821 820 820 820 820 819 819 819 819 818 818 818 818 817 817 817 817 817 817 817 817 817 816 816 816 816 816 815 815 815 816 816 816 816 816 816 816 816 817 817 817 817 817 818 818 818 818 818 818 818 818 818 818 818 818 818 818 818 818 818 818 818 818 818 818 818 818 819 819 819 819 819 819 819 819 819 819 819 819
822 821 821 821 821 821 821 821 820 820 820 820 820 820 819 819 819 818 818 818 818 817 817 817 817 818 818 817 817 816 816 816 816 816 816 815 815 815 815 816 816 816 816 816 816 817 817 817 817 817 817 817 817 818 818 817 817 817 817 817 817 817 817 817 817 817 817 817 817 817 817 817 817 817 818 818 818 818 818 818 818 818 818 818 819 819
822 822 821 822 821 821 821 821 820 820 820 820 820 820 820 819 819 819 819 818 818 818 818 818 818 818 818 818 817 817 817 817 817 816 816 816 816 816 815 815 816 816 816 816 816 816 816 816 816 817 817 817 817 817 817 817 817 817 817 817 817 817 817 817 817 817 817 817 817 817 817 817 817 817 817 817 817 817 817 817 817 817 817 818 818 818
822 822 822 822 822 822 821 821 821 820 820 820 820 820 820 820 820 819 819 819 819 819 818 818 818 818 818 818 817 817 817 817 817 817 817 817 816 816 816 815 815 815 815 815 815 815 815 815 815 815 815 815 815 815 815 815 815 815 815 815 815 815 815 815 815 815 815 816 816 816 816 816 816 816 816 816 816 816 817 817 817 817 817 817 817 817
822 822 822 822 822 822 822 821 821 820 820 820 820 820 820 820 820 819 819 819 819 819 818 818 818 818 818 818 817 817 817 816 816 816 816 816 816 815 815 815 815 815 815 815 814 814 814 814 814 814 814 814 814 814 814 814 814 814 814 814 814 814 814 814 814 814 814 814 814 814 815 815 815 815 815 815 815 816 816 816 816 816 816 816 816 816
822 822 822 822 822 822 821 821 821 821 821 820 820 820 820 820 820 819 819 819 819 819 818 818 818 818 818 817 817 817 817 816 816 816 815 815 815 815 814 814 814 814 814 814 814 814 814 814 814 813 813 813 813 813 812 812 812 812 812 812 812 812 812 812 812 812 812 813 813 813 813 814 814 814 814 814 814 814 814 815 815 815 815 815 815 815
821 822 822 822 822 822 821 821 821 821 821 821 820 820 820 820 820 820 819 819 819 819 818 818 818 817 817 817 817 817 817 816 816 816 815 815 815 814 814 814 814 814 814 813 813 813 813 813 813 812 812 812 812 812 811 811 811 811 811 811 811 811 811 811 811 811 811 811 812 812 812 812 813 813 813 813 813 813 813 813 813 813 813 813 814 814
821 821 821 821 821 821 821 821 821 821 821 821 820 820 820 820 820 820 820 819 819 819 818 818 818 817 817 817 817 816 816 816 816 816 815 815 815 814 814 814 814 813 813 813 813 813 812 812 812 811 811 811 810 810 810 809 809 809 809 809 809 809 809 809 809 810 810 810 810 811 811 811 812 812 812 812 812 812 812 812 812 812 812 812 812 813
821 821 821 821 821 821 821 821 821 821 821 821 821 821 820 820 820 820 820 819 819 819 818 818 818 817 817 816 816 816 816 816 816 815 815 815 814 814 813 813 813 813 813 813 812 812 812 811 811 810 810 809 809 808 808 808 807 807 807 807 807 807 808 808 808 808 809 809 809 809 810 810 810 810 811 811 811 811 811 811 811 811 811 811 811 812
821 821 821 821 821 821 821 821 821 821 821 821 821 821 821 821 820 820 820 819 819 819 818 818 817 817 816 816 816 816 816 815 815 815 815 814 814 813 813 812 812 812 812 812 812 811 811 810 810 809 809 808 808 807 807 807 806 806 806 806 807 807 807 807 807 807 808 808 808 808 808 809 809 809 809 809 809 809 810 810 810 810 810 810 810 810
821 821 821 821 821 821 821 821 821 821 821 821 821 821 821 821 820 820 820 820 819 819 818 818 817 817 816 815 815 815 815 815 815 815 814 814 813 813 812 812 812 812 811 811 811 810 809 809 808 808 807 807 806 806 805 805 805 806 806 806 806 806 806 806 807 807 807 807 807 807 807 807 807 808 808 808 808 808 808 808 808 808 809 809 809 809
822 821 821 821 821 821 821 821 821 821 821 821 821 821 821 821 821 820 820 820 819 819 818 818 817 817 816 815 815 814 815 815 815 814 814 813 813 812 811 811 811 810 810 810 809 809 808 808 807 807 806 806 805 804 804 804 804 805 805 805 805 805 805 805 805 805 806 806 806 806 806 806 806 807 807 807 807 807 807 807 807 807 807 807 807 808
822 822 821 821 821 821 821 821 821 821 821 821 821 821 821 821 821 821 820 820 819 819 818 818 818 817 817 815 815 814 814 815 814 814 813 813 812 812 811 810 810 809 809 809 808 808 807 807 806 806 805 804 804 803 803 803 803 803 803 803 803 804 804 804 804 804 804 804 805 805 805 805 805 805 805 805 806 806 806 806 806 806 806 806 806 807
822 822 821 821 821 821 821 821 821 821 821 821 821 821 821 821 821 821 820 820 820 819 819 818 818 817 817 816 815 814 814 814 814 814 813 812 811 811 810 809 809 808 808 808 807 807 806 805 805 804 803 803 802 802 802 802 802 802 802 802 802 802 802 802 802 803 803 803 803 803 803 804 804 804 804 804 804 804 804 804 805 805 805 805 805 805
821 821 821 821 821 821 821 821 821 821 821 821 821 821 821 821 821 820 820 820 820 819 819 818 818 817 817 816 815 814 813 813 813 813 812 811 811 810 809 809 808 808 807 807 806 806 805 804 804 803 802 802 802 802 801 801 801 801 801 801 801 801 801 801 801 802 802 802 802 802 802 802 802 802 803 803 803 803 803 803 803 803 804 804 804 804
821 821 821 821 821 821 821 821 821 821 821 821 821 821 821 821 820 820 820 820 819 819 818 818 817 817 816 816 815 814 813 813 813 813 812 811 810 809 809 808 808 807 807 806 805 805 804 803 803 802 802 801 801 800 800 800 800 799 799 799 800 800 800 800 800 800 800 800 801 801 801 801 801 801 802 802 802 802 802 802 802 802 802 803 803 803
821 821 821 821 821 821 821 821 821 820 820 820 821 821 821 821 820 820 820 819 819 818 818 817 817 816 816 815 814 814 813 813 813 812 812 811 809 808 808 807 807 807 806 805 805 804 803 803 802 802 801 800 800 799 799 799 798 798 798 798 798 799 799 799 799 799 799 799 799 799 799 800 800 800 800 800 801 801 801 801 801 801 802 802 802 802
821 821 820 820 820 820 820 820 820 820 820 820 821 821 821 820 820 820 819 819 819 818 817 817 816 815 815 814 813 812 812 812 812 812 812 810 809 808 807 807 807 806 805 805 804 803 803 802 802 801 800 799 799 798 798 797 797 797 797 798 798 798 798 798 798 798 798 798 798 798 798 799 799 799 799 799 799 800 800 800 800 800 800 800 800 801
821 820 820 820 820 820 820 820 820 820 820 820 820 820 820 820 820 819 819 819 818 817 817 816 815 814 813 813 812 812 811 811 811 811 811 810 808 807 807 807 806 805 805 804 803 803 802 801 801 800 800 799 798 797 797 797 797 797 797 797 797 797 797 797 797 797 797 797 797 797 797 797 797 797 797 798 798 798 798 798 798 799 799 799 799 799
820 820 820 820 820 819 820 820 820 820 819 820 820 819 819 819 819 818 818 818 817 817 816 816 815 813 812 812 812 811 810 810 810 810 810 809 808 807 807 806 806 805 804 803 803 802 802 801 800 800 799 798 797 797 796 796 796 796 796 796 796 796 796 796 796 796 796 796 796 796 796 796 796 796 796 796 797 797 797 797 797 797 797 797 797 797
820 820 819 819 819 819 819 819 819 819 819 819 819 819 819 818 818 818 817 817 817 816 816 815 813 812 812 811 811 810 809 809 809 809 810 809 808 807 806 806 805 805 804 803 802 802 801 800 800 799 799 798 797 796 796 795 795 795 795 795 795 795 795 795 795 795 794 794 794 795 795 795 795 795 795 795 795 796 796 796 796 796 796 796 796 796
819 819 819 819 819 819 819 818 818 818 818 819 819 819 818 818 818 817 817 816 816 815 815 814 813 812 811 811 810 810 809 809 808 808 808 808 808 807 806 805 805 804 803 802 802 801 800 799 799 798 798 797 797 796 795 795 795 795 795 795 794 794 794 794 793 793 793 793 793 793 793 794 794 794 794 794 794 795 795 795 795 795 795 795 795 795
819 819 819 818 818 818 818 818 818 818 818 818 817 818 818 817 817 817 816 816 815 815 814 814 813 812 811 810 810 809 809 809 808 808 808 808 807 806 805 805 805 804 803 802 801 800 799 799 798 798 797 797 796 796 795 795 794 794 794 794 793 793 793 792 792 792 792 792 792 792 792 792 792 793 793 793 793 793 793 794 794 794 794 794 793 793
818 818 818 817 817 817 817 817 817 817 817 817 817 817 817 817 816 816 815 815 815 814 814 813 812 812 811 810 810 809 809 808 808 807 807 807 807 806 805 805 804 804 803 802 800 799 798 798 797 797 797 796 796 795 795 795 794 794 793 793 792 792 792 791 791 791 791 791 791 791 791 791 791 791 791 791 792 792 792 792 792 792 792 792 792 792
818 817 817 817 817 816 816 816 816 816 815 815 815 815 815 815 815 815 814 814 814 814 813 812 812 811 811 810 809 809 808 807 807 807 807 807 807 805 805 805 804 804 803 802 801 799 798 797 797 797 796 796 795 795 795 794 794 793 793 792 792 791 791 790 790 789 789 789 789 789 789 789 789 789 789 789 790 790 790 790 790 791 791 791 790 790
817 817 817 817 816 816 815 815 815 814 814 814 814 813 813 813 813 813 813 813 813 813 812 812 811 811 811 810 809 808 807 807 806 806 807 807 806 805 805 804 804 804 803 803 802 800 798 797 797 796 796 796 795 795 794 794 793 793 792 792 791 790 790 789 789 788 788 788 787 787 787 787 787 787 787 787 787 787 788 788 788 789 789 789 789 788
817 817 816 816 816 815 814 814 813 813 812 812 812 812 812 812 812 811 811 812 812 812 812 811 811 810 810 810 809 808 807 807 806 806 806 806 806 805 805 804 804 803 803 803 803 802 800 798 797 796 796 795 795 794 794 793 792 792 792 791 790 790 789 788 788 787 787 787 786 786 786 786 785 785 785 785 786 786 786 786 787 787 787 787 787 787
816 816 815 815 814 814 813 812 812 812 811 811 810 810 810 810 810 810 810 810 810 810 810 810 810 810 809 809 808 808 807 807 806 806 805 806 805 805 804 804 804 803 803 802 802 802 801 799 797 796 795 795 794 794 793 792 792 792 791 790 790 789 788 788 787 787 786 786 785 785 785 784 784 784 784 784 784 784 784 784 784 785 785 785 785 785
815 815 814 814 813 813 812 812 811 810 810 809 809 809 808 808 808 808 808 808 808 809 809 809 809 809 809 808 807 807 807 807 806 806 805 805 805 805 804 804 803 803 802 802 801 801 800 799 797 796 795 794 793 793 792 792 792 791 790 790 789 788 787 787 787 786 785 785 784 784 784 783 783 783 782 782 782 782 782 782 782 783 783 783 783 784
814 814 813 813 812 812 811 811 810 810 809 808 808 808 807 807 807 807 807 807 807 807 807 808 808 808 808 807 807 807 806 806 806 805 805 805 804 804 804 803 803 802 802 801 801 800 799 798 797 797 795 794 793 792 792 792 791 790 790 789 788 787 787 787 786 785 785 784 784 784 783 783 782 782 782 782 781 781 781 781 781 781 782 782 782 782
813 812 812 812 811 811 810 810 809 809 808 808 807 807 807 807 807 806 806 806 806 806 807 807 807 807 807 807 806 806 805 805 805 804 804 804 804 804 803 802 802 802 802 801 800 800 799 797 797 796 795 794 793 792 791 791 790 790 789 788 788 787 787 786 785 785 784 784 784 783 783 782 782 782 781 781 780 780 780 780 780 780 780 780 780 780
812 812 811 811 810 810 809 809 808 808 808 807 807 806 806 806 806 806 805 805 805 805 805 805 805 805 805 805 805 804 804 804 803 803 803 803 803 803 803 802 802 801 801 800 800 799 798 797 796 795 795 794 793 792 791 790 790 789 789 788 787 787 786 785 785 784 784 783 783 782 782 782 781 781 780 780 779 779 779 778 778 778 778 778 778 778
811 811 810 810 809 809 808 808 807 807 807 807 806 806 805 805 805 805 805 804 804 804 804 804 804 804 803 803 803 802 802 802 802 802 802 802 802 802 802 801 801 800 800 800 799 799 798 797 796 795 794 793 792 792 791 790 789 789 788 787 787 786 785 785 784 784 783 783 782 782 781 781 780 780 779 779 778 778 778 777 777 777 777 777 777 776
810 810 809 809 808 808 808 807 807 807 806 806 805 805 805 804 804 804 804 803 803 803 803 803 803 802 802 802 801 801 800 800 800 800 800 800 800 800 800 800 799 799 799 799 798 798 797 797 796 795 794 792 792 791 790 790 789 788 787 787 786 785 784 784 784 783 783 782 782 781 780 780 779 779 778 778 778 777 777 777 776 776 776 776 775 775
810 809 809 808 808 807 807 807 806 806 805 805 804 804 804 803 803 803 803 802 802 802 802 802 802 801 801 800 800 799 799 798 798 798 798 797 798 798 798 798 798 798 797 797 797 797 797 796 795 794 793 793 792 791 790 789 788 788 787 786 785 784 784 783 783 782 782 781 781 780 780 779 779 778 778 777 777 777 776 776 775 775 775 775 774 774
809 808 808 807 807 807 806 806 805 805 804 804 803 803 803 803 802 802 802 802 802 801 801 801 801 800 800 799 799 798 798 797 797 797 796 796 796 796 797 797 797 797 797 796 796 796 795 795 794 793 793 792 791 790 789 788 788 787 787 786 785 783 783 782 782 781 781 780 780 779 779 778 778 777 777 776 776 776 775 775 774 774 774 773 773 773
808 808 807 807 807 806 805 805 804 804 803 803 803 802 802 802 802 802 801 801 801 801 800 800 800 799 799 798 798 797 797 797 796 796 795 795 795 795 795 795 796 796 796 795 795 795 794 794 793 792 792 792 791 790 788 787 787 787 786 785 784 783 782 781 781 780 780 779 779 778 778 777 777 776 776 775 775 774 774 773 773 773 773 772 772 772
807 807 807 806 806 805 805 804 804 803 803 802 802 802 802 801 801 801 800 800 800 800 800 799 799 799 798 798 797 797 796 796 795 795 795 794 794 794 794 794 794 795 795 794 794 793 793 793 792 792 791 791 790 789 788 787 786 785 785 784 783 783 781 780 780 779 779 779 778 777 777 777 776 775 775 774 774 773 773 772 772 771 771 771 770 770
807 806 806 805 805 804 803 803 803 802 802 802 802 801 801 800 800 800 799 799 799 799 799 799 798 798 798 797 797 796 796 795 795 794 794 794 793 793 793 793 793 793 794 793 793 793 792 792 791 791 790 790 789 788 787 786 785 784 783 783 782 782 781 780 779 778 778 777 777 777 776 776 775 774 774 773 773 772 772 771 770 770 769 769 769 768
805 805 804 804 804 803 803 802 802 802 802 801 801 800 800 800 799 799 799 798 798 798 798 798 798 797 797 796 796 795 795 795 794 794 793 793 793 792 792 792 792 792 792 792 792 792 791 791 790 789 789 789 788 787 786 785 784 783 782 782 781 780 779 778 778 777 777 777 776 775 775 775 774 773 773 772 771 771 770 770 769 769 768 768 768 767
804 803 803 803 803 802 802 802 802 801 801 800 800 799 799 799 798 798 798 798 797 797 797 797 797 797 796 795 795 795 794 794 794 793 793 793 792 792 792 792 792 792 791 791 791 791 790 790 789 789 788 787 787 786 785 784 783 782 781 780 780 779 778 777 777 776 776 775 775 774 774 774 773 773 772 771 770 769 769 768 768 768 767 767 766 766
803 803 802 802 802 802 801 801 801 800 800 799 799 799 798 798 797 797 797 797 797 797 797 796 796 796 795 795 794 794 794 793 793 793 792 792 792 792 791 791 791 791 790 790 790 789 789 788 788 787 787 787 785 784 783 782 782 781 779 779 778 777 777 776 775 775 775 774 773 773 773 773 772 772 771 770 769 768 767 767 766 766 766 765 764 764
802 802 802 802 801 801 801 800 800 800 799 799 798 798 797 797 797 797 796 796 796 796 796 795 795 795 794 794 793 793 793 792 792 792 792 792 791 791 791 790 790 790 789 789 788 788 787 787 786 786 786 785 784 782 781 780 780 779 778 777 777 776 775 774 774 773 773 773 772 772 772 772 771 770 769 768 768 767 766 765 765 764 764 763 763 762
801 801 801 800 800 800 800 799 799 799 798 798 797 797 797 796 796 796 795 795 795 795 794 794 794 793 793 792 792 792 792 792 791 791 791 790 790 790 790 789 789 789 788 788 787 787 786 785 784 783 783 782 782 781 779 778 778 777 777 776 776 775 774 773 773 772 772 771 771 770 770 770 770 769 768 768 766 765 764 763 763 763 762 762 761 761
800 799 799 799 799 799 799 798 798 798 797 797 797 796 796 795 795 794 794 794 794 793 793 793 793 792 792 792 791 791 791 790 790 790 789 789 789 789 789 788 788 788 788 787 786 786 785 783 782 781 780 780 779 778 778 777 776 776 776 775 774 773 773 772 771 771 771 770 770 769 769 768 768 768 768 767 765 764 763 762 761 761 760 760 759 759
798 798 798 798 798 797 797 797 797 797 796 796 796 795 795 794 794 793 793 793 792 792 792 792 791 791 791 790 790 790 790 789 789 789 788 788 788 788 787 787 787 787 787 786 785 784 783 782 780 779 777 777 777 776 776 775 775 774 774 773 773 772 772 771 770 769 769 769 768 768 768 767 767 766 766 765 764 763 761 760 759 758 758 758 758 757